Regional Weather Roundup
Issued by NWS

Home | Current Version | Previous Version | Text Only | Print | Product List | Glossary Off
Versions: 1 2 3 4 5 6 7 8 9 10 11 12 13 14 15 16 17 18 19 20 21 22 23 24 25 26 27 28 29 30 31 32 33 34 35 36 37 38 39 40 41 42 43 44 45 46 47 48 49 50

522
ASUS45 KPSR 211710
RWRAZ

ARIZONA HOURLY REGIONAL WEATHER ROUNDUP
NATIONAL WEATHER SERVICE PHOENIX AZ
1000 AM MST THU MAY 21 2015

NOTE: FAIR INDICATES FEW OR NO CLOUDS BELOW 12,000 FEET WITH NO
SIGNIFICANT WEATHER AND/OR OBSTRUCTIONS TO VISIBILITY.

AZZ001>003-036-211800-
NORTHWEST ARIZONA

CITY           SKY/WX    TMP DP  RH WIND       PRES   REMARKS
BULLHEAD CITY  PTSUNNY   77  32  19 SW7       29.80F
KINGMAN        PTSUNNY   70  26  19 VRB6G17   29.89F
$$

AZZ004>008-015-016-018-211800-
NORTH CENTRAL ARIZONA

CITY           SKY/WX    TMP DP  RH WIND       PRES   REMARKS
GRAND CANYON   CLOUDY    56  27  32 S12G20    30.05F
WILLIAMS       PTSUNNY   59  27  29 S22       30.11S
PRESCOTT       PTSUNNY   65  21  18 S9        29.98F
FLAGSTAFF      PTSUNNY   56  26  31 S14       30.07F
PAYSON         CLOUDY    66  32  28 VRB6G14   30.01F
$$

AZZ009>014-017-211800-
NORTHEAST ARIZONA

CITY           SKY/WX    TMP DP  RH WIND       PRES   REMARKS
WINSLOW        CLOUDY    68  30  24 SE10      30.00F
SAINT JOHNS    CLOUDY    68  19  15 S13       30.02F
WINDOW ROCK    CLOUDY    63  32  31 CALM      30.10F
SHOW LOW       CLOUDY    61  21  21 S17G28    30.07F
$$

AZZ023-211800-
GREATER PHOENIX AREA

CITY           SKY/WX    TMP DP  RH WIND       PRES   REMARKS
PHOENIX        CLOUDY    82  34  17 S10G17    29.83S
BUCKEYE        PTSUNNY   77  32  19 S6        29.84F
GLENDALE       PTSUNNY   79  34  19 CALM      29.85S
LUKE AFB       CLOUDY    79  40  24 S6        29.83S
DEER VALLEY    CLOUDY    77  34  21 VRB6      29.84F
SCOTTSDALE     CLOUDY    79  36  21 S8        29.86F
MESA-FALCON    PTSUNNY   79  36  21 S12       29.84F
MESA-GATEWAY   PTSUNNY   79  39  24 S7        29.86F
CHANDLER       PTSUNNY   81  34  18 S9        29.85S
$$

AZZ027-028-211800-
SOUTHWEST MARICOPA COUNTY AND PINAL COUNTY

CITY           SKY/WX    TMP DP  RH WIND       PRES   REMARKS
CASA GRANDE    PTSUNNY   77  37  24 SE3       29.85S
GILA BEND      PTSUNNY   80  33  18 S9        29.82F
$$

AZZ503-504-507>509-211800-
SOUTHEAST ARIZONA

CITY           SKY/WX    TMP DP  RH WIND       PRES   REMARKS
TUCSON         PTSUNNY   75  32  20 VRB5      29.92F
DAVIS-MONTHAN  CLOUDY    73  33  22 SW2       29.91S
RYAN FIELD       N/A     73  36  25 W5        29.92S
NOGALES          N/A    N/A N/A N/A MISG      29.95F
SIERRA VISTA   CLOUDY    72  20  14 SE13G22   30.00F
DOUGLAS        MOSUNNY   75  32  20 S14G23    30.01S
SAFFORD        CLOUDY    77  28  16 SE12      29.92F
$$

AZZ020-021-025-026-031-211800-
SOUTHWEST ARIZONA

CITY           SKY/WX    TMP DP  RH WIND       PRES   REMARKS
YUMA           PTSUNNY   76  40  27 NW9       29.82S
$$

CAZ031-033-041-043-047-048-061-211800-
SOUTHERN CALIFORNIA

CITY           SKY/WX    TMP DP  RH WIND       PRES   REMARKS
DOWNTOWN L.A.  PTSUNNY   64  51  62 CALM      29.95
L.A. AIRPORT   PTSUNNY   62  51  67 W9        29.97S
SAN DIEGO      CLOUDY    62  48  60 W10       30.00R
BURBANK        CLOUDY    61  48  62 S3        29.95S
ONTARIO        CLOUDY    61  48  62 VRB3      29.95F
RIVERSIDE      CLOUDY    62  48  60 VRB6      29.95F
PALM SPRINGS   MOSUNNY   75  38  26 NW12G22   29.82S
EL CENTRO NAS  MOSUNNY   75  40  28 W25       29.84S
IMPERIAL       MOSUNNY   73  42  32 W17G28    29.82R
BLYTHE         PTSUNNY   77  41  27 S15       29.80S
NEEDLES        MOSUNNY   81  28  14 SE12      29.80S
$$

NVZ020-UTZ003-211800-
SOUTHERN NEVADA-UTAH

CITY           SKY/WX    TMP DP  RH WIND       PRES   REMARKS
LAS VEGAS      PTSUNNY   76  28  17 E7        29.78F
SALT LAKE CITY PTSUNNY   61  45  55 N6        29.96F
$$

NMZ009-TXZ055-211800-
NEW MEXICO-WEST TEXAS

CITY           SKY/WX    TMP DP  RH WIND       PRES   REMARKS
ALBUQUERQUE    CLOUDY    62  44  51 E25       30.16F
EL PASO        PTSUNNY   67  52  58 SE10      30.09F
$$


........................KEY........................
SKY/WX - SKY CONDITION/WEATHER
TMP    - TEMPERATURE IN FAHRENHEIT
DP     - DEW POINT IN FAHRENHEIT
RH     - RELATIVE HUMIDITY IN PERCENT
WIND   - DIRECTION AND SPEED IN MILES PER HOUR (MPH)
VRB    - VARIABLE WIND DIRECTION
PRES   - MEAN SEA LEVEL PRESSURE IN INCHES OF MERCURY
         F - FALLING PRESSURE   R - RISING PRESSURE
         S - STEADY PRESSURE
VSB    - VISIBILITY IN MILES
HX     - HEAT INDEX IN FAHRENHEIT
WCI    - WIND CHILL INDEX IN FAHRENHEIT
TC     - TEMPERATURE IN CELSIUS WHICH IS ALSO KNOWN AS
         TEMPERATURE IN CENTIGRADE
AFB    - AIR FORCE BASE
         LUKE AFB IS LUKE AIR FORCE BASE
         DAVIS-MONTHAN IS DAVIS-MONTHAN AIR FORCE BASE
NAS    - NAVAL AIR STATION
         EL CENTRO NAS IS EL CENTRO NAVAL AIR STATION
N/A    - NOT AVAILABLE




USA.gov is the U.S. government's official web portal to all federal, state and local government web resources and services.